K1KOF Weather Reports


Display with metric or nautical units.
time (UTC)temp
F
wind
direction
speed
MPH
gust
MPH
rain 1hr
in
rain 24hr
in
rain mn
in
humidity
%
barometer
mb
20260504023627 52 90 3.0 4.0 0.00 0.00 0.00 95 1028.0
20260504023124 52 71 0.0 3.0 0.00 0.00 0.00 95 1027.7
20260504022620 52 72 2.0 3.0 0.00 0.00 0.00 94 1027.7
20260504022116 52 90 2.0 3.0 0.00 0.00 0.00 94 1027.5
20260504021614 52 74 1.0 1.0 0.00 0.00 0.00 93 1027.7
20260504021110 52 90 0.0 2.0 0.00 0.00 0.00 93 1027.5
20260504020608 53 53 2.0 4.0 0.00 0.00 0.00 93 1027.7
20260504020104 53 90 3.0 3.0 0.00 0.00 0.00 92 1027.4
20260504015600 53 86 3.0 3.0 0.00 0.00 0.00 91 1027.5
20260504015056 53 66 1.0 1.0 0.00 0.00 0.00 91 1027.4
20260504014552 53 37 0.0 2.0 0.00 0.00 0.00 90 1027.0
20260504014050 53 81 0.0 1.0 0.00 0.00 0.00 89 1027.3
20260504013547 54 82 2.0 3.0 0.00 0.00 0.00 89 1027.2
20260504013044 54 63 1.0 2.0 0.00 0.00 0.00 88 1027.1
20260504012541 54 41 2.0 2.0 0.00 0.00 0.00 87 1027.1
20260504012039 54 60 1.0 2.0 0.00 0.00 0.00 87 1027.3
20260504011536 55 66 0.0 3.0 0.00 0.00 0.00 86 1027.0
20260504011032 55 90 0.0 2.0 0.00 0.00 0.00 86 1027.0
20260504010527 55 74 1.0 2.0 0.00 0.00 0.00 85 1027.0
20260504010024 55 41 2.0 2.0 0.00 0.00 0.00 83 1027.0
20260504005521 56 40 2.0 2.0 0.00 0.00 0.00 82 1026.9
20260504005018 57 41 2.0 2.0 0.00 0.00 0.00 80 1026.6
20260504004516 57 77 0.0 3.0 0.00 0.00 0.00 79 1026.9
20260504004013 58 77 2.0 3.0 0.00 0.00 0.00 77 1026.7
20260504003509 59 60 0.0 2.0 0.00 0.00 0.00 75 1026.7
20260504003006 59 75 1.0 2.0 0.00 0.00 0.00 73 1026.7
20260504002503 60 66 2.0 2.0 0.00 0.00 0.00 70 1026.6
20260504002000 61 33 2.0 2.0 0.00 0.00 0.00 66 1026.6
20260504001457 62 60 0.0 2.0 0.00 0.00 0.00 62 1026.5
20260504000954 63 80 2.0 2.0 0.00 0.00 0.00 61 1026.5
20260504000451 64 66 0.0 0.0 0.00 0.00 0.00 53 1026.6
20260503235948 64 66 0.0 0.0 0.00 0.00 0.00 52 1026.5
20260503235446 65 340 0.0 2.0 0.00 0.00 0.00 51 1026.5
20260503234943 65 254 0.0 1.0 0.00 0.00 0.00 50 1026.8
20260503234440 65 150 2.0 2.0 0.00 0.00 0.00 49 1026.6
20260503233939 66 111 0.0 2.0 0.00 0.00 0.00 50 1026.7
20260503233435 66 233 0.0 4.0 0.00 0.00 0.00 49 1026.6
20260503232931 66 75 0.0 3.0 0.00 0.00 0.00 50 1026.7
20260503232428 67 245 2.0 5.0 0.00 0.00 0.00 49 1026.6
20260503231926 67 17 4.0 4.0 0.00 0.00 0.00 48 1026.6
20260503231423 67 75 0.0 3.0 0.00 0.00 0.00 49 1026.8
20260503230919 67 245 0.0 3.0 0.00 0.00 0.00 48 1026.8
20260503230416 67 200 0.0 4.0 0.00 0.00 0.00 46 1026.8
20260503225914 68 187 0.0 2.0 0.00 0.00 0.00 46 1026.9
20260503225410 68 212 0.0 3.0 0.00 0.00 0.00 43 1026.6
20260503224906 68 216 2.0 2.0 0.00 0.00 0.00 45 1026.9
20260503224403 68 130 4.0 5.0 0.00 0.00 0.00 42 1026.9
20260503223901 68 48 2.0 3.0 0.00 0.00 0.00 43 1026.7
20260503223359 68 104 0.0 4.0 0.00 0.00 0.00 43 1027.1
20260503222854 68 114 3.0 3.0 0.00 0.00 0.00 42 1026.9
20260503222353 69 135 0.0 4.0 0.00 0.00 0.00 41 1027.0
20260503221850 69 105 0.0 4.0 0.00 0.00 0.00 41 1026.9
20260503221349 69 133 3.0 5.0 0.00 0.00 0.00 41 1026.8
20260503220844 69 248 5.0 5.0 0.00 0.00 0.00 40 1026.8
20260503220341 70 86 0.0 5.0 0.00 0.00 0.00 40 1026.8
20260503215838 70 255 3.0 8.0 0.00 0.00 0.00 41 1026.7
20260503215336 71 254 3.0 6.0 0.00 0.00 0.00 43 1026.9
20260503214833 72 289 3.0 5.0 0.00 0.00 0.00 41 1027.0
20260503214330 70 189 2.0 6.0 0.00 0.00 0.00 44 1027.0
20260503213828 72 232 2.0 3.0 0.00 0.00 0.00 42 1026.9
20260503213325 72 79 2.0 4.0 0.00 0.00 0.00 40 1027.0
20260503212822 71 327 2.0 3.0 0.00 0.00 0.00 41 1026.9
20260503212320 71 240 5.0 5.0 0.00 0.00 0.00 41 1026.9
20260503211817 72 7 5.0 5.0 0.00 0.00 0.00 41 1027.0
20260503211314 72 176 2.0 4.0 0.00 0.00 0.00 41 1026.9
20260503210813 72 177 3.0 3.0 0.00 0.00 0.00 41 1027.0
20260503210311 71 319 0.0 5.0 0.00 0.00 0.00 42 1027.1
20260503205806 71 250 3.0 4.0 0.00 0.00 0.00 38 1027.1
20260503205304 71 19 2.0 6.0 0.00 0.00 0.00 42 1027.1
20260503204759 70 19 6.0 7.0 0.00 0.00 0.00 43 1027.1
20260503204257 70 30 3.0 5.0 0.00 0.00 0.00 43 1027.2
20260503203754 71 319 0.0 8.0 0.00 0.00 0.00 44 1027.3
20260503203252 70 337 3.0 7.0 0.00 0.00 0.00 43 1027.3
20260503202748 70 262 6.0 10.0 0.00 0.00 0.00 43 1027.5
20260503202247 70 262 2.0 5.0 0.00 0.00 0.00 43 1027.4
20260503201744 71 229 3.0 7.0 0.00 0.00 0.00 42 1027.5
20260503201241 72 209 0.0 4.0 0.00 0.00 0.00 42 1027.5
20260503200738 71 151 2.0 4.0 0.00 0.00 0.00 42 1027.7
20260503200234 70 11 5.0 5.0 0.00 0.00 0.00 41 1027.9
20260503195731 69 286 0.0 7.0 0.00 0.00 0.00 43 1028.0
20260503195228 71 195 4.0 5.0 0.00 0.00 0.00 44 1028.0
20260503194726 71 8 0.0 5.0 0.00 0.00 0.00 44 1028.3
20260503194221 70 186 1.0 5.0 0.00 0.00 0.00 43 1028.4
20260503193718 70 77 1.0 10.0 0.00 0.00 0.00 44 1028.4
20260503193214 70 12 2.0 5.0 0.00 0.00 0.00 45 1028.5
20260503192709 69 257 1.0 8.0 0.00 0.00 0.00 43 1028.7
20260503192205 71 253 6.0 7.0 0.00 0.00 0.00 43 1028.8
20260503191702 70 282 2.0 3.0 0.00 0.00 0.00 43 1028.8
20260503191159 69 263 0.0 8.0 0.00 0.00 0.00 45 1028.8
20260503190655 69 54 3.0 4.0 0.00 0.00 0.00 45 1029.0
20260503190152 70 170 2.0 4.0 0.00 0.00 0.00 45 1029.1
20260503185649 68 36 3.0 8.0 0.00 0.00 0.00 46 1029.3
20260503185144 67 129 5.0 6.0 0.00 0.00 0.00 46 1029.4
20260503184639 67 133 3.0 5.0 0.00 0.00 0.00 48 1029.5
20260503184136 66 180 1.0 5.0 0.00 0.00 0.00 47 1029.3
20260503183633 66 123 2.0 7.0 0.00 0.00 0.00 47 1029.3
20260503183130 67 20 1.0 9.0 0.00 0.00 0.00 48 1029.5
20260503182628 69 339 2.0 4.0 0.00 0.00 0.00 47 1029.6
20260503182126 67 117 4.0 5.0 0.00 0.00 0.00 51 1029.9
20260503181623 69 15 2.0 4.0 0.00 0.00 0.00 48 1029.6
20260503181120 68 23 3.0 5.0 0.00 0.00 0.00 50 1029.8
20260503180617 66 150 2.0 4.0 0.00 0.00 0.00 48 1029.7
20260503180115 65 170 3.0 7.0 0.00 0.00 0.00 49 1030.0
20260503175611 65 184 2.0 5.0 0.00 0.00 0.00 50 1029.8
20260503175108 66 192 2.0 3.0 0.00 0.00 0.00 50 1029.9
20260503174605 65 171 3.0 7.0 0.00 0.00 0.00 48 1029.8
20260503174102 65 236 3.0 4.0 0.00 0.00 0.00 48 1030.0
20260503173557 66 187 5.0 5.0 0.00 0.00 0.00 51 1030.0
20260503173054 68 57 3.0 4.0 0.00 0.00 0.00 48 1030.0
20260503172551 68 3 2.0 6.0 0.00 0.00 0.00 47 1030.1
20260503172048 65 97 8.0 8.0 0.00 0.00 0.00 47 1030.1
20260503171544 65 120 1.0 4.0 0.00 0.00 0.00 47 1030.4
20260503171042 65 41 0.0 6.0 0.00 0.00 0.00 47 1030.3
20260503170538 65 175 3.0 4.0 0.00 0.00 0.00 50 1030.3
20260503150931 61 0 0.0 5.0 0.00 0.00 0.00 62 1031.3
20260503150427 62 144 8.0 9.0 0.00 0.00 0.00 60 1031.1
20260503131320 55 90 2.0 5.0 0.00 0.00 0.00 87 1030.7
20260503130818 53 48 4.0 5.0 0.00 0.00 0.00 93 1030.9
20260503130315 52 70 3.0 4.0 0.00 0.00 0.00 98 1030.8
20260503110709 44 67 2.0 2.0 0.00 0.00 0.00 99 1029.5
20260503110206 43 52 2.0 3.0 0.00 0.00 0.00 99 1029.5
20260503100132 45 71 2.0 2.0 0.00 0.00 0.00 99 1028.6
20260503081522 46 83 0.0 2.0 0.00 0.00 0.00 99 1028.0
20260503081019 46 84 2.0 3.0 0.00 0.00 0.00 99 1027.8
20260503080515 46 57 1.0 2.0 0.00 0.00 0.00 99 1027.9
20260503072449 46 66 1.0 2.0 0.00 0.00 0.00 99 1027.3
20260503071946 46 90 1.0 2.0 0.00 0.00 0.00 99 1027.2
20260503071443 46 90 2.0 3.0 0.00 0.00 0.00 99 1027.2
20260503070939 46 63 1.0 2.0 0.00 0.00 0.00 99 1027.1
20260503070436 46 57 2.0 2.0 0.00 0.00 0.00 99 1027.1
20260503054849 48 85 2.0 2.0 0.00 0.00 0.00 99 1027.0
20260503054345 48 86 2.0 3.0 0.00 0.00 0.00 99 1027.1
20260503053844 48 75 0.0 3.0 0.00 0.00 0.00 99 1027.1
20260503053341 48 73 2.0 3.0 0.00 0.00 0.00 99 1027.3
20260503052837 49 77 1.0 2.0 0.00 0.00 0.00 99 1027.1
20260503052334 48 36 2.0 2.0 0.00 0.00 0.00 99 1026.9
20260503051831 48 49 1.0 2.0 0.00 0.00 0.00 99 1027.1
20260503051327 49 71 1.0 2.0 0.00 0.00 0.00 99 1027.0
20260503050824 49 75 2.0 3.0 0.00 0.00 0.00 99 1027.0
20260503050320 49 57 1.0 2.0 0.00 0.00 0.00 99 1027.0
20260503045818 49 71 2.0 2.0 0.00 0.00 0.00 99 1026.8
20260503045316 49 63 1.0 3.0 0.00 0.00 0.00 99 1027.0
20260503044812 49 41 2.0 3.0 0.00 0.00 0.00 99 1026.8
20260503044309 49 35 1.0 2.0 0.00 0.00 0.00 99 1026.8
20260503043806 50 33 2.0 2.0 0.00 0.00 0.00 99 1026.6
20260503043303 50 75 1.0 3.0 0.00 0.00 0.00 99 1026.7
20260503042759 50 24 2.0 2.0 0.00 0.00 0.00 99 1026.7
20260503042256 50 23 0.0 2.0 0.00 0.00 0.00 99 1026.5
20260503041751 50 40 0.0 2.0 0.00 0.00 0.00 99 1026.4
20260503041249 50 54 0.0 1.0 0.00 0.00 0.00 99 1026.4
20260503040747 50 23 1.0 2.0 0.00 0.00 0.00 99 1026.6
20260503040245 51 355 0.0 2.0 0.00 0.00 0.00 99 1026.3
20260503035741 51 23 0.0 3.0 0.00 0.01 0.01 99 1026.5
20260503035238 51 180 0.0 2.0 0.00 0.01 0.01 99 1026.4
20260503034736 51 17 2.0 2.0 0.00 0.01 0.01 99 1026.2
20260503034232 51 7 2.0 4.0 0.00 0.01 0.01 99 1026.3
20260503033730 51 74 1.0 2.0 0.00 0.01 0.01 99 1026.4
20260503033227 51 81 0.0 2.0 0.00 0.01 0.01 99 1026.3
20260503032726 52 82 0.0 1.0 0.00 0.01 0.01 99 1026.2
20260503032224 51 98 0.0 1.0 0.00 0.01 0.01 99 1026.2
20260503031720 52 90 0.0 2.0 0.00 0.01 0.01 99 1026.3
20260503031219 52 120 1.0 2.0 0.00 0.01 0.01 99 1026.2
20260503030715 52 37 2.0 2.0 0.00 0.01 0.01 99 1026.1
20260503030211 52 61 2.0 2.0 0.00 0.01 0.01 99 1026.2
20260503025708 52 40 0.0 2.0 0.00 0.01 0.01 99 1026.0
20260503025206 52 29 2.0 2.0 0.00 0.01 0.01 99 1025.8
20260503024702 52 6 0.0 2.0 0.00 0.01 0.01 99 1026.0
20260503024200 52 20 1.0 3.0 0.00 0.01 0.01 99 1025.7